RORVIK/RYUM current weather conditions

sailwx.info

Wind from 230 at 26 knots

Air temperature 7.0° C
Visibility: greater than 2.2 NM
Dewpoint 6.0° C
Present weather: Light drizzle.

Last reported at 2017-Mar-27 05:20 UTC.
Time now 2017-Mar-27 06:45 UTC

Location: N 64°50' E 011°08'.
View on Google Maps.

See reports from other nearby stations

  
Tides and Currents Weather Stations Pressure Air Temp Water Temp Dewpoint Dewpoint Depression Visibility Wind Speed Wind Dir Waves Ship Positions
date/time (UTC)wind fromknots sea level pressurealtimeterstation pressurevisibilityair tempwater tempwave heightnotes
2017-Mar-27 05:20 230 26 2.2 7.0 Light drizzle.
2017-Mar-27 04:50 240 25 2.7 7.0 Light drizzle.
2017-Mar-27 04:20 240 24 3.2 7.0 Light drizzle.
2017-Mar-27 03:50 230 22 2.2 7.0 Drizzle rain.
2017-Mar-26 19:50 270 6 5.4 5.0 Light rain showers.
2017-Mar-26 18:50 270 6 5.4 6.0
2017-Mar-26 18:20 270 8 5.4 6.0
2017-Mar-26 17:50 260 11 5.4 6.0
2017-Mar-26 16:20 260 13 5.4 6.0
2017-Mar-26 15:20 260 13 5.4 6.0
2017-Mar-26 14:50 270 13 5.4 7.0
2017-Mar-26 14:20 270 13 5.4 7.0 Showers in the vicinity.
2017-Mar-26 13:20 270 13 5.4 7.0 Showers in the vicinity.
2017-Mar-26 12:50 270 13 5.4 7.0 Showers in the vicinity.
2017-Mar-26 12:20 270 12 5.4 7.0 Showers in the vicinity.
2017-Mar-25 09:20 250 13 5.4 8.0
2017-Mar-25 08:50 260 14 5.4 7.0 Showers in the vicinity.
2017-Mar-25 08:20 250 13 5.4 6.0 Showers in the vicinity.
2017-Mar-25 07:20 250 11 5.4 5.0 Showers in the vicinity.
2017-Mar-25 06:50 240 6 5.4 3.0 Showers in the vicinity.
2017-Mar-25 06:20 270 18 5.4 3.0 Light rain showers.